This demonstration page uses our WeatherBlox Daily Observations layout. Learn more.

Left ArrowRight Arrow

39.51506, -84.39828

Hourly Observations for March 29, 2016

Temp ( °F °C ) Dew Point ( °F °C ) Humidity (%) Winds ( mph kmh ) Pressure ( in mb ) Visibility ( mi km ) Precip ( " mm )
12:20 am 00:20 Cloudy 47 8.2 37 2.5 68 68 N 3 6 30.21 1023 10 16 0.00 0.00
12:35 am 00:35 Mostly Cloudy 47 8.2 37 2.6 68 68 Calm 30.21 1023 10 16 0.00 0.00
12:55 am 00:55 Partly Cloudy 46 8 37 2.5 69 69 Calm 30.21 1023 10 16 0.00 0.00
1:15 am 01:15 Partly Cloudy 42 5.7 37 2.5 80 80 Calm 30.21 1023 10 16 0.00 0.00
1:35 am 01:35 Clear 40 4.7 36 2.2 84 84 Calm 30.24 1024 10 16 0.00 0.00
1:55 am 01:55 Clear 39 4.1 35 1.7 85 85 NNW 3 6 30.24 1024 10 16 0.00 0.00
2:15 am 02:15 Clear 39 4 35 1.8 86 86 NNW 3 6 30.24 1024 10 16 0.00 0.00
2:35 am 02:35 Clear 39 4 36 2 87 87 Calm 30.24 1024 10 16 0.00 0.00
2:55 am 02:55 Clear 39 4 36 2 87 87 NNW 3 6 30.24 1024 10 16 0.00 0.00
3:15 am 03:15 Clear 38 3.1 33 0.8 85 85 Calm 30.24 1024 10 16 0.00 0.00
3:35 am 03:35 Clear 37 2.6 33 0.5 86 86 NNW 3 6 30.24 1024 10 16 0.00 0.00
3:55 am 03:55 Clear 37 2.6 33 0.6 87 87 Calm 30.27 1025 10 16 0.00 0.00
4:15 am 04:15 Clear 37 2.6 33 0.5 86 86 Calm 30.27 1025 10 16 0.00 0.00
4:35 am 04:35 Clear 37 2.6 33 0.3 85 85 NNE 3 6 30.27 1025 10 16 0.00 0.00
4:55 am 04:55 Clear 37 2.6 32 0.1 84 84 NNE 6 9 30.27 1025 10 16 0.00 0.00
5:15 am 05:15 Clear 37 2.6 32 0 83 83 Calm 30.27 1025 10 16 0.00 0.00
5:35 am 05:35 Clear 37 2.6 32 0 83 83 Calm 30.27 1025 10 16 0.00 0.00
5:55 am 05:55 Clear 37 2.6 32 0 83 83 N 3 6 30.27 1025 10 16 0.00 0.00
6:15 am 06:15 Clear 37 2.6 32 0 83 83 Calm 30.30 1026 10 16 0.00 0.00
6:35 am 06:35 Clear 37 2.6 32 0.1 84 84 Calm 30.30 1026 10 16 0.00 0.00
6:55 am 06:55 Clear 36 2.4 32 0 84 84 NNE 3 6 30.30 1026 10 16 0.00 0.00
7:15 am 07:15 Clear 35 1.7 32 -0.2 87 87 NNE 3 6 30.33 1027 10 16 0.00 0.00
7:35 am 07:35 Sunny 34 1.2 31 -0.8 87 87 NE 3 6 30.33 1027 10 16 0.00 0.00
7:55 am 07:55 Sunny 35 1.5 31 -0.5 87 87 Calm 30.33 1027 10 16 0.00 0.00
8:15 am 08:15 Sunny 37 2.6 32 0.1 84 84 NNE 3 6 30.33 1027 10 16 0.00 0.00
8:35 am 08:35 Sunny 37 2.6 32 0 83 83 NNE 5 7 30.36 1028 10 16 0.00 0.00
8:55 am 08:55 Sunny 39 4 34 1 81 81 N 5 7 30.36 1028 10 16 0.00 0.00
9:15 am 09:15 Sunny 40 4.7 33 0.7 76 76 NNE 7 11 30.36 1028 10 16 0.00 0.00
9:35 am 09:35 Sunny 42 5.6 34 1 73 73 NNE 6 9 30.36 1028 10 16 0.00 0.00
9:55 am 09:55 Sunny 43 6.2 33 0.8 69 69 NNE 7 11 30.36 1028 10 16 0.00 0.00
10:15 am 10:15 Sunny 44 6.8 33 0.7 65 65 NE 5 7 30.33 1027 10 16 0.00 0.00
10:35 am 10:35 Sunny 47 8.2 34 1.3 62 62 NE 3 6 30.36 1028 10 16 0.00 0.00
10:55 am 10:55 Sunny 49 9.2 34 1.3 58 58 NE 7 11 30.36 1028 10 16 0.00 0.00
11:15 am 11:15 Sunny 49 9.6 33 0.5 53 53 NE 6 9 30.36 1028 10 16 0.00 0.00
11:35 am 11:35 Sunny 49 9.6 31 -0.4 50 50 ENE 7 11 30.36 1028 10 16 0.00 0.00
12:00 pm 12:00 Sunny 51 10.6 29 -1.6 43 43 ENE 3 6 30.36 1028 10 16 0.00 0.00
12:20 pm 12:20 Sunny 52 11 29 -1.6 42 42 Calm 30.36 1028 10 16 0.00 0.00
12:35 pm 12:35 Sunny 55 12.5 30 -1.1 39 39 ENE 10 17 30.33 1027 10 16 0.00 0.00
12:55 pm 12:55 Sunny 55 12.5 30 -1.1 39 39 NNE 8 13 30.33 1027 10 16 0.00 0.00
1:15 pm 13:15 Sunny 55 12.5 27 -2.9 34 34 NNE 9 15 30.33 1027 10 16 0.00 0.00
1:35 pm 13:35 Sunny 55 12.6 27 -2.7 35 35 E 7 11 30.33 1027 10 16 0.00 0.00
1:55 pm 13:55 Sunny 57 13.7 27 -2.9 32 32 ENE 9 15 30.33 1027 10 16 0.00 0.00
2:15 pm 14:15 Sunny 57 13.8 26 -3.5 30 30 ENE 16 26 30.30 1026 10 16 0.00 0.00
2:35 pm 14:35 Sunny 57 13.8 25 -3.7 30 30 ENE 13 20 30.30 1026 10 16 0.00 0.00
2:55 pm 14:55 Sunny 57 13.8 25 -4.1 29 29 NNE 12 19 30.30 1026 10 16 0.00 0.00
3:15 pm 15:15 Sunny 57 13.8 25 -4.1 29 29 ENE 9 15 30.30 1026 10 16 0.00 0.00
3:35 pm 15:35 Sunny 57 13.8 22 -5.4 26 26 NE 10 17 30.30 1026 10 16 0.00 0.00
3:55 pm 15:55 Sunny 57 13.8 22 -5.5 26 26 N 3 6 30.30 1026 10 16 0.00 0.00
4:15 pm 16:15 Sunny 57 13.8 23 -5.2 27 27 NE 5 7 30.27 1025 10 16 0.00 0.00
4:35 pm 16:35 Sunny 57 13.8 20 -6.5 24 24 ENE 9 15 30.27 1025 10 16 0.00 0.00
4:55 pm 16:55 Sunny 57 13.8 20 -6.4 24 24 ENE 10 17 30.27 1025 10 16 0.00 0.00
5:15 pm 17:15 Sunny 57 13.8 20 -6.4 24 24 ENE 7 11 30.27 1025 10 16 0.00 0.00
5:30 pm 17:30 Sunny 57 13.8 20 -6.8 24 24 NE 5 7 30.27 1025 10 16 0.00 0.00
5:55 pm 17:55 Sunny 57 13.8 20 -6.9 23 23 NE 7 11 30.27 1025 10 16 0.00 0.00
6:20 pm 18:20 Sunny 57 13.8 19 -7 23 23 ENE 6 9 30.27 1025 10 16 0.00 0.00
6:35 pm 18:35 Sunny 57 13.8 20 -6.9 23 23 ENE 7 11 30.24 1024 10 16 0.00 0.00
6:55 pm 18:55 Sunny 57 13.8 22 -5.6 26 26 ENE 8 13 30.24 1024 10 16 0.00 0.00
7:15 pm 19:15 Sunny 55 12.5 18 -7.8 24 24 Calm 30.24 1024 10 16 0.00 0.00
7:35 pm 19:35 Sunny 55 12.5 22 -5.6 28 28 NE 6 9 30.24 1024 10 16 0.00 0.00
7:55 pm 19:55 Sunny 55 12.5 22 -5.3 29 29 NNE 5 7 30.24 1024 10 16 0.00 0.00
8:15 pm 20:15 Clear 54 12.2 26 -3.4 34 34 Calm 30.24 1024 10 16 0.00 0.00
8:35 pm 20:35 Clear 49 9.6 33 0.5 53 53 Calm 30.24 1024 10 16 0.00 0.00
8:55 pm 20:55 Clear 43 6.1 33 0.3 67 67 Calm 30.24 1024 10 16 0.00 0.00
9:15 pm 21:15 Clear 43 6.3 32 0.2 65 65 Calm 30.24 1024 10 16 0.00 0.00
9:35 pm 21:35 Clear 42 5.5 32 0 68 68 N 3 6 30.27 1025 10 16 0.00 0.00
9:55 pm 21:55 Clear 40 4.7 31 -0.3 70 70 N 5 7 30.27 1025 10 16 0.00 0.00
10:15 pm 22:15 Clear 39 4 32 -0.2 74 74 Calm 30.27 1025 10 16 0.00 0.00
10:40 pm 22:40 Clear 39 4 32 0 75 75 Calm 30.27 1025 10 16 0.00 0.00
10:55 pm 22:55 Clear 39 4 32 0.1 76 76 Calm 30.27 1025 10 16 0.00 0.00
11:15 pm 23:15 Clear 39 4 33 0.3 77 77 Calm 30.27 1025 10 16 0.00 0.00
11:30 pm 23:30 Clear 39 4 32 0.2 77 77 N 3 6 30.27 1025 10 16 0.00 0.00
11:55 pm 23:55 Clear 37 2.8 31 -0.3 80 80 N 5 7 30.27 1025 10 16 0.00 0.00

Powered by AerisWeather